www.pogodaiklimat.ru

Погода и климат >> Архив погоды >> Кувейт >> Абраке Аль Хабари


ПОГОДА на Абраке Аль Хабари

  • Прогноз погоды на Абраке Аль Хабари
  • Монитор погоды на Абраке Аль Хабари

АРХИВ ПОГОДЫ на Абраке Аль Хабари

Время (UTC), дата Ветер
(напр.,м/с)
 
Видим.   Явления Облачность Т
(С)
Тd
(С)
f
(%)
Тe
(С)
Тes
(С)
Комфортность P
(гПа)
Po
(гПа)
Тmin
(С)
Tmax
(С)
R
(мм)
R24
(мм)
S
(см)
15 11.02 СЗ 5-6
{10}
14 км н/о +14.3 +8.1 66 +13 +13 1016.1 987.9
18 11.02 З 2-2
{10}
9000 м дымка н/о +11.8 +9.5 86 +11 +11 1017.5 989.0
21 11.02 З 7-9
{12}
19 км н/о +13.0 +4.0 54 +11 +11 1017.4 989.0 +10.9 +16.5
00 12.02 З 6-8
{12}
19 км н/о +9.9 +6.1 77 +6 +6 1018.1 989.4
03 12.02 З 6-8
{8}
12 км н/о +8.6 +7.7 94 +5 +5 1019.4 990.5
06 12.02 СЗ 8-10
{10}
13 км н/о +11.7 +8.3 80 +8 +8 1020.6 992.0
09 12.02 СЗ 10-13
{13}
17 км н/о +15.2 +5.5 52 +13 +13 1020.7 992.4
12 12.02 СЗ 8-11
{14}
19 км н/о +16.5 +4.0 43 +15 +15 1019.6 991.5
15 12.02 З 4-5
{12}
20 км н/о +14.2 +5.6 56 +13 +13 1021.2 992.8
18 12.02 З 3-4
{12}
20 км н/о +10.9 +6.6 75 +9 +9 1023.1 994.3
21 12.02 З 3-3
{6}
19 км н/о +8.7 +6.4 85 +6 +6 1023.7 994.7 +8.0 +17.1
00 13.02 З 3-4
{6}
20 км н/о +7.9 +5.6 85 +5 +5 1023.8 994.7
03 13.02 З 4-5
{5}
18 км н/о +6.9 +5.3 90 +3 +3 1025.0 995.8
06 13.02 З 3-4
{6}
18 км н/о +12.3 +7.0 70 +11 +11 1025.9 997.2
09 13.02 СВ 2-4
{4}
18 км н/о +16.3 +5.3 48 +16 +16 1024.0 995.7
12 13.02 ЮВ 2-3
{4}
19 км н/о +18.0 +2.2 35 +19 +19 1021.9 993.9
15 13.02 СВ 2-2
{5}
12 км н/о +15.4 +4.7 49 +16 +16 1022.7 994.4
18 13.02 Ю 2-3
{5}
11 км н/о +11.4 +6.9 74 +11 +11 1022.8 994.1
21 13.02 Ю 2-3
{5}
4700 м дымка н/о +10.8 +8.1 83 +9 +9 1021.8 993.1 +6.1 +19.3
00 14.02 ЮВ 2-3
{5}
2100 м дымка н/о +9.9 +8.7 92 +8 +8 1021.1 992.3
03 14.02 Ю 3-4
{5}
2300 м дымка н/о +9.2 +8.0 92 +7 +7 1020.7 991.8
06 14.02 Ю 3-5
{5}
12 км н/о +15.1 +8.1 63 +14 +14 1021.4 993.1
09 14.02 ЮВ 6-12
{13}
18 км н/о +19.6 +2.5 32 +20 +20 1017.8 990.0
12 14.02 ЮВ 10-15
{15}
13 км н/о +21.0 +3.0 30 +21 +21 комфорт 1014.8 987.2
15 14.02 ЮВ 11-14
{15}
17 км н/о +17.0 +4.6 44 +15 +15 1013.7 985.8
18 14.02 ЮВ 5-8
{17}
18 км в посл. час дождь {ливн. осадки} н/о +15.1 +7.7 61 +14 +14 1015.7 987.6
21 14.02 ЮВ 9-12
{12}
8000 м в посл. час дождь {ливн. осадки} н/о +14.2 +10.9 81 +12 +12 1014.5 986.3 +8.9 +21.5
00 15.02 ЮВ 11-14
{14}
3500 м дымка {ливн. осадки, дождь} н/о +13.9 +11.6 86 +11 +11 1012.8 984.6
03 15.02 ЮВ 10-13
{15}
4200 м дымка н/о +13.8 +11.7 87 +11 +11 1012.4 984.2
06 15.02 ЮВ 8-13
{16}
8000 м дымка н/о +15.9 +9.7 67 +14 +14 1013.2 985.2
09 15.02 Ю 7-12
{15}
4000 м дымка н/о +20.8 +7.7 43 +22 +22 комфорт 1011.4 983.9
12 15.02 Ю 5-9
{15}
4100 м дымка н/о +22.6 +9.4 43 +24 +24 комфорт 1009.7 982.4
15 15.02 Ю 6-8
{10}
4300 м дымка н/о +19.9 +14.2 70 +22 +22 комфорт 1011.0 983.4
18 15.02 СЗ 4-6
{10}
19 км н/о +17.7 +5.3 44 +17 +17 1014.0 986.2
21 15.02 С 5-6
{9}
14 км н/о +15.7 +4.2 46 +15 +15 1015.3 987.2 +13.3 +23.4
00 16.02 С 7-11
{11}
1800 м дымка н/о +12.0 +10.9 93 +9 +9 1015.9 987.4
03 16.02 С 7-9
{11}
9000 м дымка н/о +10.4 +7.7 83 +7 +7 1017.5 988.8
09 16.02 С 9-12
{13}
16 км н/о +17.0 +1.4 35 +16 +16 1019.3 991.2
12 16.02 С 9-12
{13}
15 км н/о +18.4 -1.8 25 +17 +17 1018.0 990.1
15 16.02 С 5-6
{13}
18 км н/о +15.3 +1.1 38 +14 +14 1019.6 991.4
18 16.02 СЗ 2-2
{13}
16 км н/о +11.9 +3.5 56 +12 +12 1021.5 992.9
21 16.02 З 2-3
{3}
15 км н/о +9.7 +4.1 68 +8 +8 1021.4 992.6 +9.6 +18.6
00 17.02 З 4-5
{5}
16 км н/о +8.6 +2.3 65 +6 +6 1021.0 992.1
03 17.02 ЮЗ 4-6
{6}
15 км н/о +7.7 +2.7 71 +4 +4 1020.9 991.9
06 17.02 ЮЗ 4-5
{7}
13 км н/о +13.8 +1.9 44 +13 +13 1022.0 993.6
09 17.02 СЗ 6-10
{11}
16 км н/о +19.3 +1.0 29 +19 +19 1020.3 992.4
12 17.02 СЗ 8-11
{13}
17 км н/о +20.1 -1.4 23 +20 +20 1018.0 990.3
15 17.02 СЗ 4-5
{11}
19 км н/о +17.0 +2.0 36 +17 +17 1018.4 990.4
18 17.02 З 3-3
{11}
18 км н/о +13.7 +3.7 51 +13 +13 1019.7 991.3
21 17.02 СЗ 3-3
{4}
19 км н/о +12.2 +4.2 58 +11 +11 1019.3 990.8 +6.5 +20.6
00 18.02 СЗ 3-3
{4}
19 км н/о +10.5 +5.0 69 +9 +9 1018.7 990.0
03 18.02 З 3-4
{4}
19 км н/о +8.9 +4.7 75 +6 +6 1018.9 990.1
06 18.02 З 3-3
{4}
18 км н/о +13.3 +5.4 59 +12 +12 1019.0 990.6
09 18.02 СЗ 4-6
{6}
19 км н/о +18.4 +1.6 32 +18 +18 1017.1 989.2

 

Местоположение метеостанции Абраке Аль Хабари (Кувейт): широта 29.30 долгота 47.00 высота над уровнем моря 237 м.

В архиве по умолчанию представлена погода на Абраке Аль Хабари за последнюю неделю. Архивные данные за месяц целиком и за предыдущие месяцы, начиная с января 2011 года, Вы можете получить, выбрав интересующий диапазон дат из раскрывающегося списка и нажав кнопку "Ввод!".


*Определитесь, кто Вы:
робот инопланетянин человек

Внимание! Время в таблицах - всемирное. Для получения местного времени необходимо прибавить поправку, которая равна 3 ч.

Смотрите также архив погоды в соседних городах и на ближайших метеорологических станциях:

Погода на Аль-Салми (Кувейт) (38 км)
Погода в Минагише (Кувейт) (57 км)
Погода в Эль-Джахра (Кувейт) (65 км)
Погода на Метеостанции Jal Aliyah (Кувейт) (66 км)
Погода на Метеостанции Mintribah (Кувейт) (68 км)
Погода в Сулайбии (Кувейт) (70 км)
Погода на Экспериментальной ферме (Кувейт) (91 км)
Погода в Эль-Кувейте (Кувейт) (95 км)
Погода на Метеостанции Sabriyah (Кувейт) (96 км)
Погода в Кувейт Сити (Кувейт) (102 км)

Пояснения к столбцам:

Ветер - указаны скорость ветра в м/с - средняя за 10 мин, порывы в срок и между сроками (в фигурных скобках) и направление, откуда дует ветер: С - северный, СВ - северо-восточный, В - восточный, ЮВ - юго-восточный, Ю - южный, ЮЗ - юго-западный, З - западный, СЗ - северо-западный.
Видимость - горизонтальная дальность видимости в метрах или километрах. При видимости от 1 до 10 км при отсутствии осадков обычно наблюдается дымка, при ухудшении видимости до 1 км и менее - туман. В сухую погоду видимость может ухудшаться дымом, пылью или мглою.
Явления - указаны атмосферные явления, наблюдавшиеся в срок или в последний час перед сроком; фигурными скобками обозначены явления, наблюдавшиеся между сроками (за 1-3 часа до срока); квадратными скобками обозначены град или гололедные отложения с указанием их диаметра в мм.
Облачность - указаны через наклонную черту общая и нижняя облачность в баллах и высота нижней границы облаков в метрах; квадратными скобками обозначены формы облаков: Ci - перистые, Cs - перисто-слоистые, Cc - перисто-кучевые, Ac - высококучевые, As - высокослоистые, Sc - слоисто-кучевые, Ns - слоисто-дождевые, Cu - кучевые, Cb - кучево-дождевые. Подробнее классификацию облаков см. в Атласе облаков (PDF).
T - Температура воздуха - температура, измеренная на высоте 2 м над землей.
Td - Температура точки росы - температура, при понижении до которой содержащийся в воздухе водяной пар достигнет насыщения.
f - Относительная влажность воздуха - влажноcть воздуха, измеренная на высоте 2 м над землей.
Te - Эффективная температура - температура, которую ощущает одетый по сезону человек в тени. Характеристика душности погоды. При расчете учитывается влияние влажности воздуха и скорости ветра на теплоощущения человека.
Tes - Эффективная температура на солнце - температура, которую ощущает человек, с поправкой на солнечный нагрев. Характеристика знойности погоды. Зависит от высоты солнца над горизонтом, облачности и скорости ветра. Ночью, в пасмурную погоду, а также при ветре 12 м/с и более поправка равна нулю.
P - Атмосферное давление - приведенное к уровню моря атмосферное давление.
Po - Атмосферное давление - измеренное на уровне метеостанции атмосферное давление.
Tmin - Минимальная температура - минимум температуры воздуха на высоте 2 м над землей.
Tmax - Максимальная температура - максимум температуры воздуха на высоте 2 м над землей.
R - Количество осадков - Количество выпавших осадков за период времени, мм. При наведении курсора мыши на число - период времени, за который выпало указанное количество осадков.
R24 - Количество осадков - Количество выпавших осадков за 24 часа, мм.
S - Снежный покров - Высота снежного покрова, см. При наведении курсора мыши на число - состояние снежного покрова и степень покрытия местности в баллах.